This is the latest recevied weather packets stored in our database for station/object KD8OZS. If no packets are shown the sender has not sent any weather packets the latest 1 day(s).
| Time | Temp. | Humidity | Pressure | Rain* | Wind** | Luminosity | Snow |
|---|---|---|---|---|---|---|---|
| 1778031860 | 11.67° C | 98% | 1000.5 hPa | 3.05 mm | 0.89 m/s, 263° | 0 W/m² | - |
| 1778031556 | 11.67° C | 98% | 1000.7 hPa | 4.32 mm | 0 m/s | 0 W/m² | - |
| 1778031254 | 13.33° C | 97% | 1000.5 hPa | 6.1 mm | 2.24 m/s, 301° | 0 W/m² | - |
| 1778030950 | 13.89° C | 98% | 1000.4 hPa | 8.89 mm | 0.45 m/s, 257° | 0 W/m² | - |
| 1778030647 | 13.89° C | 98% | 1000.4 hPa | 9.65 mm | 0.45 m/s, 250° | 0 W/m² | - |
| 1778030344 | 13.89° C | 98% | 999.9 hPa | 13.72 mm | 0 m/s | 0 W/m² | - |
| 1778030041 | 13.89° C | 98% | 999.9 hPa | 12.7 mm | 0 m/s | 0 W/m² | - |
| 1778029738 | 13.89° C | 98% | 999.7 hPa | 7.87 mm | 0 m/s | 0 W/m² | - |
| 1778029436 | 13.89° C | 97% | 999.6 hPa | 6.1 mm | 0 m/s | 0 W/m² | - |
| 1778029133 | 13.89° C | 97% | 999.8 hPa | 4.32 mm | 0 m/s | 0 W/m² | - |
| 1778028830 | 13.89° C | 97% | 999.9 hPa | 1.27 mm | 0 m/s | 0 W/m² | - |
| 1778028525 | 13.89° C | 97% | 999.8 hPa | 1.78 mm | 0 m/s | 0 W/m² | - |
| 1778028223 | 13.89° C | 97% | 999.7 hPa | 3.05 mm | 0 m/s | 0 W/m² | - |
| 1778027919 | 13.89° C | 97% | 999.9 hPa | 3.05 mm | 0 m/s | 0 W/m² | - |
| 1778027615 | 13.89° C | 97% | 999.9 hPa | 0 mm | 0 m/s | 0 W/m² | - |
| 1778027312 | 13.89° C | 97% | 1000 hPa | 1.27 mm | 0 m/s | 0 W/m² | - |
| 1778027009 | 13.89° C | 97% | 999.7 hPa | 3.05 mm | 0.45 m/s, 239° | 0 W/m² | - |
| 1778026704 | 14.44° C | 97% | 999.6 hPa | 3.05 mm | 0 m/s | 0 W/m² | - |
| 1778026402 | 14.44° C | 97% | 999.8 hPa | 6.1 mm | 0.89 m/s, 248° | 0 W/m² | - |
| 1778026098 | 14.44° C | 97% | 999.9 hPa | 6.6 mm | 0 m/s | 0 W/m² | - |
| 1778025796 | 14.44° C | 97% | 999.8 hPa | 3.05 mm | 0 m/s | 0 W/m² | - |
| 1778025493 | 14.44° C | 97% | 1000.1 hPa | 3.05 mm | 0 m/s | 2 W/m² | - |
| 1778025190 | 14.44° C | 97% | 999.8 hPa | 3.05 mm | 0 m/s | 4 W/m² | - |
| 1778024887 | 14.44° C | 97% | 999.9 hPa | 3.05 mm | 0.45 m/s, 245° | 3 W/m² | - |
| 1778024585 | 14.44° C | 97% | 1000 hPa | 1.27 mm | 0.45 m/s, 242° | 2 W/m² | - |
* Rain latest hour (hover to see other rain measurements)
** Current wind speed in m/s (hover to see current wind gust speed)